Location: Kergrach
(48.3833°N, 4.5167°W)
Time: 09:42:32
(UTC+00:00)

ADEOS Rocket - Pass Details

Date: 18 February 2020
Orbit: 859 x 1306 km, 98.7° (Epoch: 03 April)

Event Time Altitude Azimuth Distance (km) Brightness Sun altitude
Rises 05:32:13 0° 147° (SSE) 3,656 6.4 -18.7°
Reaches altitude 10° 05:34:36 10° 143° (SE) 2,767 5.8 -18.3°
Maximum altitude 05:40:42 57° 67° (ENE) 1,260 3.9 -17.3°
Drops below altitude 10° 05:47:31 10° 352° (N) 3,090 5.5 -16.2°
Sets 05:50:18 0° 348° (NNW) 4,116 6.1 -15.7°
